This is the latest recevied weather packets stored in our database for station/object DELTON-WX. If no packets are shown the sender has not sent any weather packets the latest 10 day(s).
| Time | Temp. | Humidity | Pressure | Rain* | Wind** | Luminosity | Snow |
|---|---|---|---|---|---|---|---|
| 1777927551 | 22.78° C | 37% | 968.3 hPa | 0 mm | - | - | - |
| 1777926662 | 22.78° C | 37% | 968.3 hPa | 0 mm | - | - | - |
| 1777925753 | 22.78° C | 37% | 968.3 hPa | 0 mm | - | - | - |
| 1777924878 | 22.78° C | 37% | 967.7 hPa | 0 mm | - | - | - |
| 1777923953 | 22.78° C | 41% | 968.9 hPa | 0 mm | - | - | - |
| 1777923071 | 22.78° C | 41% | 968.9 hPa | 0 mm | - | - | - |
| 1777922154 | 22.22° C | 41% | 968.8 hPa | 0 mm | - | - | - |
| 1777921282 | 22.22° C | 41% | 968.8 hPa | 0 mm | - | - | - |
| 1777920349 | 22.22° C | 31% | 969.9 hPa | 0 mm | - | - | - |
| 1777919474 | 22.22° C | 32% | 969.5 hPa | 0 mm | - | - | - |
| 1777918552 | 22.22° C | 32% | 969.5 hPa | 0 mm | - | - | - |
| 1777917691 | 22.22° C | 32% | 969.5 hPa | 0 mm | - | - | - |
| 1777916752 | 21.67° C | 39% | 970.5 hPa | 0 mm | - | - | - |
| 1777915868 | 21.67° C | 36% | 970.2 hPa | 0 mm | - | - | - |
| 1777914951 | 21.67° C | 36% | 970.2 hPa | 0 mm | - | - | - |
| 1777914079 | 21.11° C | 33% | 970 hPa | 0 mm | - | - | - |
| 1777913151 | 20.56° C | 43% | 970.6 hPa | 0 mm | - | - | - |
| 1777912265 | 20° C | 43% | 970.6 hPa | 0 mm | - | - | - |
| 1777911351 | 20° C | 43% | 970.6 hPa | 0 mm | - | - | - |
| 1777910485 | 19.44° C | 43% | 970.6 hPa | 0 mm | - | - | - |
| 1777909551 | 18.89° C | 58% | 971 hPa | 0 mm | - | - | - |
| 1777908668 | 17.78° C | 58% | 970.9 hPa | 0 mm | - | - | - |
| 1777907752 | 17.22° C | 58% | 970.9 hPa | 0 mm | - | - | - |
| 1777906888 | 16.67° C | 58% | 970.9 hPa | 0 mm | - | - | - |
| 1777905951 | 16.11° C | 66% | 971 hPa | 0 mm | - | - | - |
* Rain latest hour (hover to see other rain measurements)
** Current wind speed in m/s (hover to see current wind gust speed)